リニア-ヒル彗星

P/2008 QP20 ( LINEAR-Hill )

English version
Home page
Updated on April 11, 2009

---------------------------------------------------------------------

・ プロフィール

発見日 2008年8月25日、9月23日
発見光度 20.7等、17.7等
発見者 Lincoln Laboratory Near-Earth Asteroid Research project, R. E. Hill (Catalina Sky Survey)

・ 写真集

・ 軌道要素

The following orbital elements are taken from MPC 64115:

Epoch 2008 Oct. 21.0 TT = JDT 2454760.5
T 2008 Nov. 2.7088 TT                                   MPC
q   1.723090             (2000.0)            P               Q
n   0.1511686      Peri.   72.0479      +0.7915995      -0.6061625
a   3.490024       Node   325.1488      +0.4971013      +0.7121823
e   0.506281       Incl.    7.7493      +0.3553315      +0.3540671
P   6.52
From 232 observations 2008 Aug. 25-Nov. 9, mean residual 0".6.

・ 星図

・ 光度変化

        m1 = 11.0 + 5 logΔ + 25.0 log r(t - 45)

---------------------------------------------------------------------

軌道要素はMPCのEphemerides and Orbital Elementsに掲載されたものです。
星図はステラナビゲータ Ver.8 (アストロアーツ) で作成したものです。
光度グラフはComet for Windowsで作成したものです。

---------------------------------------------------------------------

Copyright(C) Seiichi Yoshida (comet@aerith.net). All rights reserved.